Weather in Bogoslovo

Russia / Vladimir Oblast     56°09′27″N   40°19′18″E
temp.,
°C
wind,
m/s
gust,
m/s
humid.,
%
clouds,
%
prec.,
mm/h
press.,
hPa
HPBL,
m
22 may, sun
sun2200:00+2ne4107467 0.0 1008214
03:00−1ne48845 0.0 1008142
06:00+1ne58714 0.0 1006281
09:00+6ne66515 0.0 10051141
12:00+8nne56475 0.0 10051592
15:00+8nne6651100 0.0 10041731
18:00+5nne676091 0.0 10051265
21:00+1n37755 0.0 1006136
23 may, mon
mon2300:00−1nnw34825 0.0 100561
03:00−2nw388560 0.0 1005168
06:00+1nnw597491 0.0 1005556
09:00+4nnw6863100 0.0 10041296
12:00+8nw6853100 0.0 10031606
15:00+9nw61053100 0.0 10022014
18:00+8nnw5860100 0.0 1002967
21:00+4nw2461100 0.0 100266
24 may, tue
tue2400:00+4wnw41065100 0.0 1002359
03:00+2wnw61287100 0.1 1002776
06:00+1nw4997100 0.7 1003545
09:00+3nnw6776100 0.9 10041153
12:00+4n667492 0.4 10071167
15:00+5n466593 0.4 10081278
18:00+6nnw4570100 0.3 10101026
21:00+1nnw34905 0.4 101253
25 may, wed
wed2500:000nw349391 0.0 101273
03:00+2nw3792100 0.1 1013233
06:00+3nw479082 0.1 1014314
09:00+7nnw4565100 0.2 10141360
12:00+7nw4561100 0.0 10141237
15:00+8nw4664100 0.0 10151102
18:00+9nw356296 0.0 10141198
21:00+6w117175 0.0 101410
26 may, thu
thu2600:00+4sw337676 0.0 101328
03:00+3wsw3381100 0.0 101336
06:00+6w358095 0.0 1011175
09:00+9w237049 0.0 1009573
12:00+13wsw245981 0.0 10071497
15:00+16ese1351100 0.0 10041246
18:00+12e487560 0.0 1002211
21:00+10e51172100 0.0 1000426